{"data":{"norad_id":52844,"intl_designator":"2022-062Q","name":"STARLINK-4208","alt_names":[],"object_type":"PAYLOAD","status":"ACTIVE","operator":null,"country":"US","launch_date":"2022-06-17","launch_site_code":"AFETR","launch_vehicle":null,"mission":null,"orbit_class":"UNKNOWN","rcs_meters":null,"size_class":null,"mass_kg":null,"dimensions":null,"purposes":["comms"],"wikipedia_slug":null,"has_3d_model":false,"image_url":null,"decayed_at":null,"tle_current":{"epoch":"2026-05-25T04:14:03.163200Z","epoch_age_seconds":56148,"freshness":"FRESH","line1":"1 52844U 22062Q   26145.17642550 -.00001781  00000+0 -93831-4 0  9999","line2":"2 52844  53.2127  50.7578 0001189  99.4934 260.6192 15.08851294217339","mean_motion":15.08851294,"eccentricity":0.0001189,"inclination_deg":53.2127,"raan_deg":50.7578,"arg_perigee_deg":99.4934,"mean_anomaly_deg":260.6192,"bstar":-9.3831e-5,"rev_number":21733,"period_min":95.436840311978,"perigee_km":538.88633606597,"apogee_km":540.53139981337,"semimajor_km":6917.8458679397,"source":"CELESTRAK","updated_at":"2026-05-25T13:38:17.243520Z"}}}